20050415,000018,32251,32.707168,-117.236738,NaN,NaN,NaN,NaN
20050415,000048,32281,32.707175,-117.236748,NaN,NaN,NaN,NaN
20050415,000118,32311,32.707170,-117.236748,NaN,NaN,NaN,NaN
20050415,000148,32341,32.707173,-117.236743,NaN,NaN,NaN,NaN
20050415,000219,32372,32.707170,-117.236740,NaN,NaN,NaN,NaN
20050415,000249,32402,32.707166,-117.236740,NaN,NaN,NaN,NaN
20050415,000319,32432,32.707166,-117.236738,NaN,NaN,NaN,NaN
20050415,000348,32461,32.707170,-117.236747,NaN,NaN,NaN,NaN
20050415,000418,32491,32.707166,-117.236738,NaN,NaN,NaN,NaN
20050415,000449,32522,32.707168,-117.236732,NaN,NaN,NaN,NaN
20050415,000519,32552,32.707168,-117.236735,NaN,NaN,NaN,NaN
20050415,000550,32583,32.707160,-117.236737,NaN,NaN,NaN,NaN
20050415,000620,32613,32.707166,-117.236738,NaN,NaN,NaN,NaN
20050415,000650,32643,32.707170,-117.236742,NaN,NaN,NaN,NaN
20050415,000720,32673,32.707170,-117.236740,NaN,NaN,NaN,NaN
20050415,000750,32703,32.707166,-117.236738,NaN,NaN,NaN,NaN
20050415,000820,32733,32.707168,-117.236743,NaN,NaN,NaN,NaN
20050415,000850,32763,32.707166,-117.236740,NaN,NaN,NaN,NaN
20050415,000920,32793,32.707170,-117.236740,NaN,NaN,NaN,NaN
20050415,000951,32824,32.707175,-117.236748,NaN,NaN,NaN,NaN
20050415,001020,32853,32.707173,-117.236747,NaN,NaN,NaN,NaN
20050415,001051,32884,32.707171,-117.236743,NaN,NaN,NaN,NaN
20050415,001121,32914,32.707171,-117.236748,NaN,NaN,NaN,NaN
20050415,001151,32944,32.707170,-117.236745,NaN,NaN,NaN,NaN
20050415,001220,32973,32.707165,-117.236743,NaN,NaN,NaN,NaN
20050415,001251,33004,32.707165,-117.236750,NaN,NaN,NaN,NaN
20050415,001321,33034,32.707165,-117.236742,NaN,NaN,NaN,NaN
20050415,001351,33064,32.707165,-117.236742,NaN,NaN,NaN,NaN
20050415,001421,33094,32.707158,-117.236748,NaN,NaN,NaN,NaN
20050415,001451,33124,32.707161,-117.236738,NaN,NaN,NaN,NaN
20050415,001521,33154,32.707163,-117.236740,NaN,NaN,NaN,NaN
20050415,001551,33184,32.707160,-117.236747,NaN,NaN,NaN,NaN
20050415,001621,33214,32.707161,-117.236742,NaN,NaN,NaN,NaN
20050415,001652,33245,32.707165,-117.236742,NaN,NaN,NaN,NaN
20050415,001722,33275,32.707165,-117.236747,NaN,NaN,NaN,NaN
20050415,001752,33305,32.707163,-117.236742,NaN,NaN,NaN,NaN
20050415,001821,33334,32.707166,-117.236740,NaN,NaN,NaN,NaN
20050415,001851,33364,32.707175,-117.236740,NaN,NaN,NaN,NaN
20050415,001921,33394,32.707175,-117.236742,NaN,NaN,NaN,NaN
20050415,001952,33425,32.707168,-117.236752,NaN,NaN,NaN,NaN
20050415,002022,33455,32.707170,-117.236748,NaN,NaN,NaN,NaN
20050415,002052,33485,32.707171,-117.236747,NaN,NaN,NaN,NaN
20050415,002122,33515,32.707171,-117.236750,NaN,NaN,NaN,NaN
20050415,002152,33546,32.707171,-117.236748,NaN,NaN,NaN,NaN
20050415,002222,33575,32.707170,-117.236750,NaN,NaN,NaN,NaN
20050415,002253,33606,32.707165,-117.236750,NaN,NaN,NaN,NaN
20050415,002322,33635,32.707170,-117.236742,NaN,NaN,NaN,NaN
20050415,002352,33665,32.707168,-117.236750,NaN,NaN,NaN,NaN
20050415,002422,33695,32.707166,-117.236753,NaN,NaN,NaN,NaN
20050415,002452,33725,32.707176,-117.236745,NaN,NaN,NaN,NaN
20050415,002522,33755,32.707171,-117.236748,NaN,NaN,NaN,NaN
20050415,002552,33785,32.707171,-117.236743,NaN,NaN,NaN,NaN
20050415,002623,33816,32.707155,-117.236757,NaN,NaN,NaN,NaN
20050415,002653,33846,32.707160,-117.236758,NaN,NaN,NaN,NaN
20050415,002723,33876,32.707166,-117.236752,NaN,NaN,NaN,NaN
20050415,002754,33907,32.707160,-117.236757,NaN,NaN,NaN,NaN
20050415,002823,33936,32.707165,-117.236752,NaN,NaN,NaN,NaN
20050415,002854,33967,32.707163,-117.236755,NaN,NaN,NaN,NaN
20050415,002924,33997,32.707165,-117.236753,NaN,NaN,NaN,NaN
20050415,002954,34027,32.707163,-117.236750,NaN,NaN,NaN,NaN
20050415,003024,34057,32.707160,-117.236738,NaN,NaN,NaN,NaN
20050415,003054,34087,32.707161,-117.236740,NaN,NaN,NaN,NaN
20050415,003124,34117,32.707163,-117.236738,NaN,NaN,NaN,NaN
20050415,003154,34147,32.707171,-117.236742,NaN,NaN,NaN,NaN
20050415,003224,34177,32.707166,-117.236743,NaN,NaN,NaN,NaN
20050415,003254,34207,32.707170,-117.236743,NaN,NaN,NaN,NaN
20050415,003325,34238,32.707156,-117.236748,NaN,NaN,NaN,NaN
20050415,003354,34267,32.707166,-117.236747,NaN,NaN,NaN,NaN
20050415,003425,34298,32.707161,-117.236755,NaN,NaN,NaN,NaN
20050415,003455,34328,32.707161,-117.236753,NaN,NaN,NaN,NaN
20050415,003525,34358,32.707166,-117.236753,NaN,NaN,NaN,NaN
20050415,003556,34389,32.707166,-117.236757,NaN,NaN,NaN,NaN
20050415,003625,34418,32.707166,-117.236747,NaN,NaN,NaN,NaN
20050415,003655,34448,32.707160,-117.236753,NaN,NaN,NaN,NaN
20050415,003726,34479,32.707165,-117.236748,NaN,NaN,NaN,NaN
20050415,003755,34508,32.707163,-117.236752,NaN,NaN,NaN,NaN
20050415,003826,34539,32.707168,-117.236748,NaN,NaN,NaN,NaN
20050415,003856,34569,32.707163,-117.236748,NaN,NaN,NaN,NaN
20050415,003925,34598,32.707163,-117.236748,NaN,NaN,NaN,NaN
20050415,003955,34628,32.707171,-117.236750,NaN,NaN,NaN,NaN
20050415,004025,34658,32.707171,-117.236750,NaN,NaN,NaN,NaN
20050415,004056,34689,32.707171,-117.236752,NaN,NaN,NaN,NaN
20050415,004126,34719,32.707168,-117.236750,NaN,NaN,NaN,NaN
20050415,004155,34748,32.707171,-117.236750,NaN,NaN,NaN,NaN
20050415,004226,34779,32.707171,-117.236753,NaN,NaN,NaN,NaN
20050415,004256,34809,32.707170,-117.236753,NaN,NaN,NaN,NaN
20050415,004326,34839,32.707166,-117.236753,NaN,NaN,NaN,NaN
20050415,004356,34869,32.707166,-117.236745,NaN,NaN,NaN,NaN
20050415,004426,34899,32.707166,-117.236753,NaN,NaN,NaN,NaN
20050415,004456,34929,32.707170,-117.236748,NaN,NaN,NaN,NaN
20050415,004527,34960,32.707165,-117.236752,NaN,NaN,NaN,NaN
20050415,004557,34990,32.707173,-117.236752,NaN,NaN,NaN,NaN
20050415,004626,35019,32.707166,-117.236753,NaN,NaN,NaN,NaN
20050415,004656,35049,32.707171,-117.236755,NaN,NaN,NaN,NaN
20050415,004726,35079,32.707166,-117.236752,NaN,NaN,NaN,NaN
20050415,004757,35110,32.707165,-117.236753,NaN,NaN,NaN,NaN
20050415,004827,35140,32.707163,-117.236752,NaN,NaN,NaN,NaN
20050415,004856,35169,32.707163,-117.236757,NaN,NaN,NaN,NaN
20050415,004927,35200,32.707163,-117.236753,NaN,NaN,NaN,NaN
20050415,004957,35230,32.707161,-117.236752,NaN,NaN,NaN,NaN
20050415,005027,35260,32.707165,-117.236747,NaN,NaN,NaN,NaN
20050415,005057,35291,32.707165,-117.236752,NaN,NaN,NaN,NaN
20050415,005127,35320,32.707165,-117.236755,NaN,NaN,NaN,NaN
20050415,005157,35350,32.707161,-117.236750,NaN,NaN,NaN,NaN
20050415,005228,35381,32.707176,-117.236743,NaN,NaN,NaN,NaN
20050415,005257,35410,32.707171,-117.236753,NaN,NaN,NaN,NaN
20050415,005327,35440,32.707173,-117.236755,NaN,NaN,NaN,NaN
20050415,005358,35471,32.707173,-117.236753,NaN,NaN,NaN,NaN
20050415,005428,35501,32.707176,-117.236748,NaN,NaN,NaN,NaN
20050415,005458,35531,32.707185,-117.236745,NaN,NaN,NaN,NaN
20050415,005528,35561,32.707180,-117.236750,NaN,NaN,NaN,NaN
20050415,005558,35591,32.707180,-117.236753,NaN,NaN,NaN,NaN
20050415,005628,35621,32.707175,-117.236748,NaN,NaN,NaN,NaN
20050415,005658,35651,32.707175,-117.236748,NaN,NaN,NaN,NaN
20050415,005729,35682,32.707175,-117.236753,NaN,NaN,NaN,NaN
20050415,005758,35711,32.707176,-117.236747,NaN,NaN,NaN,NaN
20050415,005829,35742,32.707173,-117.236743,NaN,NaN,NaN,NaN
20050415,005858,35771,32.707178,-117.236745,NaN,NaN,NaN,NaN
20050415,005928,35801,32.707180,-117.236745,NaN,NaN,NaN,NaN
20050415,005958,35831,32.707181,-117.236750,NaN,NaN,NaN,NaN
20050415,010028,35861,32.707180,-117.236750,NaN,NaN,NaN,NaN
20050415,010058,35891,32.707181,-117.236753,NaN,NaN,NaN,NaN
20050415,010130,35923,32.707173,-117.236750,NaN,NaN,NaN,NaN
20050415,010200,35953,32.707178,-117.236748,NaN,NaN,NaN,NaN
20050415,010230,35983,32.707175,-117.236748,NaN,NaN,NaN,NaN
20050415,010300,36013,32.707175,-117.236753,NaN,NaN,NaN,NaN
20050415,010330,36043,32.707171,-117.236752,NaN,NaN,NaN,NaN
20050415,010400,36073,32.707173,-117.236750,NaN,NaN,NaN,NaN
20050415,010430,36103,32.707180,-117.236742,NaN,NaN,NaN,NaN
20050415,010500,36133,32.707178,-117.236748,NaN,NaN,NaN,NaN
20050415,010530,36163,32.707178,-117.236748,NaN,NaN,NaN,NaN
20050415,010601,36194,32.707176,-117.236750,NaN,NaN,NaN,NaN
20050415,010630,36223,32.707181,-117.236747,NaN,NaN,NaN,NaN
20050415,010700,36253,32.707178,-117.236750,NaN,NaN,NaN,NaN
20050415,010730,36283,32.707165,-117.236763,NaN,NaN,NaN,NaN
20050415,010801,36314,32.707173,-117.236748,NaN,NaN,NaN,NaN
20050415,010831,36344,32.707171,-117.236748,NaN,NaN,NaN,NaN
20050415,010901,36374,32.707166,-117.236752,NaN,NaN,NaN,NaN
20050415,010931,36404,32.707175,-117.236750,NaN,NaN,NaN,NaN
20050415,011002,36435,32.707176,-117.236747,NaN,NaN,NaN,NaN
20050415,011031,36464,32.707176,-117.236748,NaN,NaN,NaN,NaN
20050415,011101,36494,32.707168,-117.236752,NaN,NaN,NaN,NaN
20050415,011131,36524,32.707171,-117.236750,NaN,NaN,NaN,NaN
20050415,011202,36555,32.707171,-117.236747,NaN,NaN,NaN,NaN
20050415,011231,36584,32.707175,-117.236747,NaN,NaN,NaN,NaN
20050415,011302,36615,32.707171,-117.236747,NaN,NaN,NaN,NaN
20050415,011332,36645,32.707175,-117.236757,NaN,NaN,NaN,NaN
20050415,011402,36675,32.707165,-117.236757,NaN,NaN,NaN,NaN
20050415,011432,36705,32.707165,-117.236757,NaN,NaN,NaN,NaN
20050415,011503,36736,32.707170,-117.236755,NaN,NaN,NaN,NaN
20050415,011532,36765,32.707168,-117.236757,NaN,NaN,NaN,NaN
20050415,011603,36796,32.707175,-117.236753,NaN,NaN,NaN,NaN
20050415,011633,36826,32.707168,-117.236757,NaN,NaN,NaN,NaN
20050415,011702,36855,32.707168,-117.236757,NaN,NaN,NaN,NaN
20050415,011733,36886,32.707168,-117.236760,NaN,NaN,NaN,NaN
20050415,011803,36916,32.707178,-117.236758,NaN,NaN,NaN,NaN
20050415,011833,36946,32.707175,-117.236755,NaN,NaN,NaN,NaN
20050415,011903,36976,32.707175,-117.236753,NaN,NaN,NaN,NaN
20050415,011934,37007,32.707178,-117.236753,NaN,NaN,NaN,NaN
20050415,012003,37036,32.707183,-117.236760,NaN,NaN,NaN,NaN
20050415,012034,37067,32.707173,-117.236760,NaN,NaN,NaN,NaN
20050415,012104,37097,32.707178,-117.236760,NaN,NaN,NaN,NaN
20050415,012134,37127,32.707175,-117.236757,NaN,NaN,NaN,NaN
20050415,012204,37157,32.707193,-117.236767,NaN,NaN,NaN,NaN
20050415,012233,37186,32.707186,-117.236762,NaN,NaN,NaN,NaN
20050415,012304,37217,32.707183,-117.236763,NaN,NaN,NaN,NaN
20050415,012334,37247,32.707175,-117.236757,NaN,NaN,NaN,NaN
20050415,012405,37278,32.707180,-117.236762,NaN,NaN,NaN,NaN
20050415,012435,37308,32.707180,-117.236760,NaN,NaN,NaN,NaN
20050415,012505,37338,32.707176,-117.236765,NaN,NaN,NaN,NaN
20050415,012535,37368,32.707171,-117.236760,NaN,NaN,NaN,NaN
20050415,012605,37398,32.707170,-117.236758,NaN,NaN,NaN,NaN
20050415,012635,37428,32.707178,-117.236758,NaN,NaN,NaN,NaN
20050415,012705,37458,32.707176,-117.236760,NaN,NaN,NaN,NaN
20050415,012735,37488,32.707171,-117.236760,NaN,NaN,NaN,NaN
20050415,012805,37518,32.707175,-117.236762,NaN,NaN,NaN,NaN
20050415,012836,37549,32.707176,-117.236758,NaN,NaN,NaN,NaN
20050415,012905,37578,32.707181,-117.236757,NaN,NaN,NaN,NaN
20050415,012936,37609,32.707176,-117.236757,NaN,NaN,NaN,NaN
20050415,013005,37638,32.707181,-117.236755,NaN,NaN,NaN,NaN
20050415,013036,37669,32.707176,-117.236753,NaN,NaN,NaN,NaN
20050415,013106,37699,32.707181,-117.236758,NaN,NaN,NaN,NaN
20050415,013136,37729,32.707178,-117.236760,NaN,NaN,NaN,NaN
20050415,013207,37760,32.707176,-117.236760,NaN,NaN,NaN,NaN
20050415,013236,37789,32.707180,-117.236763,NaN,NaN,NaN,NaN
20050415,013307,37820,32.707183,-117.236763,NaN,NaN,NaN,NaN
20050415,013336,37849,32.707183,-117.236762,NaN,NaN,NaN,NaN
20050415,013406,37879,32.707190,-117.236760,NaN,NaN,NaN,NaN
20050415,013436,37909,32.707181,-117.236763,NaN,NaN,NaN,NaN
20050415,013506,37939,32.707181,-117.236758,NaN,NaN,NaN,NaN
20050415,013537,37970,32.707183,-117.236758,NaN,NaN,NaN,NaN
20050415,013607,38000,32.707185,-117.236762,NaN,NaN,NaN,NaN
20050415,013637,38030,32.707178,-117.236760,NaN,NaN,NaN,NaN
20050415,013707,38060,32.707161,-117.236765,NaN,NaN,NaN,NaN
20050415,013738,38091,32.707158,-117.236758,NaN,NaN,NaN,NaN
20050415,013807,38120,32.707163,-117.236755,NaN,NaN,NaN,NaN
20050415,013838,38151,32.707171,-117.236760,NaN,NaN,NaN,NaN
20050415,013907,38180,32.707168,-117.236760,NaN,NaN,NaN,NaN
20050415,013938,38211,32.707168,-117.236765,NaN,NaN,NaN,NaN
20050415,014008,38241,32.707165,-117.236762,NaN,NaN,NaN,NaN
20050415,014038,38271,32.707163,-117.236762,NaN,NaN,NaN,NaN
20050415,014107,38300,32.707161,-117.236758,NaN,NaN,NaN,NaN
20050415,014138,38331,32.707166,-117.236760,NaN,NaN,NaN,NaN
20050415,014207,38360,32.707163,-117.236760,NaN,NaN,NaN,NaN
20050415,014237,38390,32.707168,-117.236757,NaN,NaN,NaN,NaN
20050415,014308,38421,32.707163,-117.236755,NaN,NaN,NaN,NaN
20050415,014337,38450,32.707163,-117.236758,NaN,NaN,NaN,NaN
20050415,014408,38481,32.707156,-117.236758,NaN,NaN,NaN,NaN
20050415,014437,38510,32.707155,-117.236757,NaN,NaN,NaN,NaN
20050415,014507,38540,32.707155,-117.236757,NaN,NaN,NaN,NaN
20050415,014538,38571,32.707155,-117.236762,NaN,NaN,NaN,NaN
20050415,014607,38600,32.707155,-117.236757,NaN,NaN,NaN,NaN
20050415,014638,38631,32.707158,-117.236753,NaN,NaN,NaN,NaN
20050415,014707,38660,32.707160,-117.236752,NaN,NaN,NaN,NaN
20050415,014738,38691,32.707161,-117.236755,NaN,NaN,NaN,NaN
20050415,014808,38721,32.707165,-117.236760,NaN,NaN,NaN,NaN
20050415,014839,38752,32.707165,-117.236757,NaN,NaN,NaN,NaN
20050415,014908,38781,32.707165,-117.236757,NaN,NaN,NaN,NaN
20050415,014938,38811,32.707166,-117.236760,NaN,NaN,NaN,NaN
20050415,015009,38842,32.707166,-117.236757,NaN,NaN,NaN,NaN
20050415,015039,38872,32.707166,-117.236762,NaN,NaN,NaN,NaN
20050415,015109,38902,32.707163,-117.236760,NaN,NaN,NaN,NaN
20050415,015139,38932,32.707163,-117.236762,NaN,NaN,NaN,NaN
20050415,015209,38962,32.707166,-117.236763,NaN,NaN,NaN,NaN
20050415,015239,38992,32.707166,-117.236762,NaN,NaN,NaN,NaN
20050415,015309,39022,32.707165,-117.236760,NaN,NaN,NaN,NaN
20050415,015340,39053,32.707168,-117.236762,NaN,NaN,NaN,NaN
20050415,015410,39083,32.707163,-117.236763,NaN,NaN,NaN,NaN
20050415,015441,39114,32.707168,-117.236757,NaN,NaN,NaN,NaN
20050415,015510,39143,32.707166,-117.236758,NaN,NaN,NaN,NaN
20050415,015540,39173,32.707170,-117.236757,NaN,NaN,NaN,NaN
20050415,015610,39203,32.707166,-117.236757,NaN,NaN,NaN,NaN
20050415,015640,39233,32.707166,-117.236753,NaN,NaN,NaN,NaN
20050415,015711,39264,32.707168,-117.236753,NaN,NaN,NaN,NaN
20050415,015741,39294,32.707166,-117.236757,NaN,NaN,NaN,NaN
20050415,015811,39324,32.707170,-117.236750,NaN,NaN,NaN,NaN
20050415,015841,39354,32.707170,-117.236755,NaN,NaN,NaN,NaN
20050415,015911,39384,32.707166,-117.236757,NaN,NaN,NaN,NaN
20050415,015941,39414,32.707163,-117.236762,NaN,NaN,NaN,NaN
20050415,020011,39444,32.707160,-117.236760,NaN,NaN,NaN,NaN
20050415,020041,39474,32.707171,-117.236752,NaN,NaN,NaN,NaN
20050415,020111,39504,32.707188,-117.236743,NaN,NaN,NaN,NaN
20050415,020141,39534,32.707165,-117.236757,NaN,NaN,NaN,NaN
20050415,020211,39564,32.707168,-117.236758,NaN,NaN,NaN,NaN
20050415,020241,39594,32.707163,-117.236758,NaN,NaN,NaN,NaN
20050415,020312,39625,32.707166,-117.236755,NaN,NaN,NaN,NaN
20050415,020341,39654,32.707173,-117.236755,NaN,NaN,NaN,NaN
20050415,020411,39684,32.707166,-117.236758,NaN,NaN,NaN,NaN
20050415,020442,39715,32.707163,-117.236757,NaN,NaN,NaN,NaN
20050415,020512,39745,32.707171,-117.236757,NaN,NaN,NaN,NaN
20050415,020542,39775,32.707168,-117.236757,NaN,NaN,NaN,NaN
20050415,020613,39806,32.707163,-117.236758,NaN,NaN,NaN,NaN
20050415,020642,39835,32.707165,-117.236760,NaN,NaN,NaN,NaN
20050415,020712,39865,32.707171,-117.236758,NaN,NaN,NaN,NaN
20050415,020742,39895,32.707163,-117.236757,NaN,NaN,NaN,NaN
20050415,020812,39925,32.707165,-117.236755,NaN,NaN,NaN,NaN
20050415,020843,39956,32.707166,-117.236757,NaN,NaN,NaN,NaN
20050415,020913,39986,32.707165,-117.236755,NaN,NaN,NaN,NaN
20050415,020943,40016,32.707166,-117.236757,NaN,NaN,NaN,NaN
20050415,021013,40046,32.707163,-117.236753,NaN,NaN,NaN,NaN
20050415,021043,40076,32.707168,-117.236755,NaN,NaN,NaN,NaN
20050415,021113,40106,32.707165,-117.236757,NaN,NaN,NaN,NaN
20050415,021143,40136,32.707168,-117.236757,NaN,NaN,NaN,NaN
20050415,021212,40165,32.707168,-117.236755,NaN,NaN,NaN,NaN
20050415,021243,40196,32.707166,-117.236750,NaN,NaN,NaN,NaN
20050415,021313,40226,32.707170,-117.236750,NaN,NaN,NaN,NaN
20050415,021343,40256,32.707163,-117.236752,NaN,NaN,NaN,NaN
20050415,021414,40287,32.707168,-117.236753,NaN,NaN,NaN,NaN
20050415,021444,40317,32.707166,-117.236753,NaN,NaN,NaN,NaN
20050415,021514,40347,32.707166,-117.236758,NaN,NaN,NaN,NaN
20050415,021543,40376,32.707171,-117.236753,NaN,NaN,NaN,NaN
20050415,021613,40406,32.707166,-117.236752,NaN,NaN,NaN,NaN
20050415,021643,40436,32.707168,-117.236753,NaN,NaN,NaN,NaN
20050415,021713,40466,32.707166,-117.236755,NaN,NaN,NaN,NaN
20050415,021743,40496,32.707166,-117.236760,NaN,NaN,NaN,NaN
20050415,021814,40527,32.707166,-117.236753,NaN,NaN,NaN,NaN
20050415,021844,40557,32.707171,-117.236758,NaN,NaN,NaN,NaN
20050415,021914,40587,32.707168,-117.236758,NaN,NaN,NaN,NaN
20050415,021944,40617,32.707170,-117.236760,NaN,NaN,NaN,NaN
20050415,022014,40647,32.707163,-117.236762,NaN,NaN,NaN,NaN
20050415,022043,40676,32.707170,-117.236758,NaN,NaN,NaN,NaN
20050415,022113,40706,32.707168,-117.236762,NaN,NaN,NaN,NaN
20050415,022144,40737,32.707168,-117.236755,NaN,NaN,NaN,NaN
20050415,022215,40768,32.707170,-117.236750,NaN,NaN,NaN,NaN
20050415,022245,40798,32.707166,-117.236752,NaN,NaN,NaN,NaN
20050415,022315,40828,32.707165,-117.236755,NaN,NaN,NaN,NaN
20050415,022345,40858,32.707161,-117.236753,NaN,NaN,NaN,NaN
20050415,022415,40888,32.707170,-117.236757,NaN,NaN,NaN,NaN
20050415,022446,40919,32.707170,-117.236763,NaN,NaN,NaN,NaN
20050415,022515,40948,32.707170,-117.236755,NaN,NaN,NaN,NaN
20050415,022546,40979,32.707166,-117.236753,NaN,NaN,NaN,NaN
20050415,022615,41008,32.707168,-117.236758,NaN,NaN,NaN,NaN
20050415,022645,41038,32.707173,-117.236760,NaN,NaN,NaN,NaN
20050415,022716,41069,32.707171,-117.236757,NaN,NaN,NaN,NaN
20050415,022745,41098,32.707173,-117.236757,NaN,NaN,NaN,NaN
20050415,022816,41129,32.707166,-117.236758,NaN,NaN,NaN,NaN
20050415,022846,41159,32.707173,-117.236760,NaN,NaN,NaN,NaN
20050415,022916,41189,32.707171,-117.236758,NaN,NaN,NaN,NaN
20050415,022946,41219,32.707170,-117.236752,NaN,NaN,NaN,NaN
20050415,023016,41249,32.707163,-117.236757,NaN,NaN,NaN,NaN
20050415,023047,41280,32.707166,-117.236760,NaN,NaN,NaN,NaN
20050415,023116,41309,32.707168,-117.236758,NaN,NaN,NaN,NaN
20050415,023147,41340,32.707170,-117.236758,NaN,NaN,NaN,NaN
20050415,023216,41369,32.707175,-117.236762,NaN,NaN,NaN,NaN
20050415,023247,41400,32.707168,-117.236760,NaN,NaN,NaN,NaN
20050415,023316,41429,32.707173,-117.236760,NaN,NaN,NaN,NaN
20050415,023346,41459,32.707171,-117.236760,NaN,NaN,NaN,NaN
20050415,023416,41489,32.707171,-117.236758,NaN,NaN,NaN,NaN
20050415,023446,41519,32.707168,-117.236757,NaN,NaN,NaN,NaN
20050415,023517,41550,32.707170,-117.236755,NaN,NaN,NaN,NaN
20050415,023547,41580,32.707168,-117.236757,NaN,NaN,NaN,NaN
20050415,023617,41610,32.707175,-117.236762,NaN,NaN,NaN,NaN
20050415,023647,41640,32.707171,-117.236760,NaN,NaN,NaN,NaN
20050415,023717,41670,32.707171,-117.236762,NaN,NaN,NaN,NaN
20050415,023748,41701,32.707166,-117.236760,NaN,NaN,NaN,NaN
20050415,023818,41731,32.707166,-117.236755,NaN,NaN,NaN,NaN
20050415,023848,41761,32.707170,-117.236753,NaN,NaN,NaN,NaN
20050415,023917,41790,32.707173,-117.236760,NaN,NaN,NaN,NaN
20050415,023948,41821,32.707170,-117.236757,NaN,NaN,NaN,NaN
20050415,024018,41851,32.707170,-117.236757,NaN,NaN,NaN,NaN
20050415,024047,41880,32.707170,-117.236757,NaN,NaN,NaN,NaN
20050415,024117,41910,32.707168,-117.236755,NaN,NaN,NaN,NaN
20050415,024148,41941,32.707168,-117.236752,NaN,NaN,NaN,NaN
20050415,024218,41971,32.707170,-117.236757,NaN,NaN,NaN,NaN
20050415,024248,42001,32.707170,-117.236753,NaN,NaN,NaN,NaN
20050415,024318,42031,32.707168,-117.236752,NaN,NaN,NaN,NaN
20050415,024349,42062,32.707175,-117.236743,NaN,NaN,NaN,NaN
20050415,024418,42091,32.707175,-117.236743,NaN,NaN,NaN,NaN
20050415,024449,42122,32.707178,-117.236742,NaN,NaN,NaN,NaN
20050415,024518,42151,32.707176,-117.236742,NaN,NaN,NaN,NaN
20050415,024549,42182,32.707178,-117.236737,NaN,NaN,NaN,NaN
20050415,024619,42212,32.707176,-117.236742,NaN,NaN,NaN,NaN
20050415,024648,42241,32.707175,-117.236738,NaN,NaN,NaN,NaN
20050415,024718,42271,32.707178,-117.236742,NaN,NaN,NaN,NaN
20050415,024749,42302,32.707173,-117.236742,NaN,NaN,NaN,NaN
20050415,024818,42331,32.707170,-117.236743,NaN,NaN,NaN,NaN
20050415,024849,42362,32.707175,-117.236745,NaN,NaN,NaN,NaN
20050415,024919,42392,32.707171,-117.236748,NaN,NaN,NaN,NaN
20050415,024949,42423,32.707168,-117.236743,NaN,NaN,NaN,NaN
20050415,025019,42452,32.707175,-117.236738,NaN,NaN,NaN,NaN
20050415,025050,42483,32.707176,-117.236740,NaN,NaN,NaN,NaN
20050415,025120,42513,32.707176,-117.236740,NaN,NaN,NaN,NaN
20050415,025150,42543,32.707178,-117.236742,NaN,NaN,NaN,NaN
20050415,025220,42573,32.707176,-117.236738,NaN,NaN,NaN,NaN
20050415,025250,42603,32.707175,-117.236742,NaN,NaN,NaN,NaN
20050415,025320,42633,32.707176,-117.236737,NaN,NaN,NaN,NaN
20050415,025350,42663,32.707178,-117.236738,NaN,NaN,NaN,NaN
20050415,025420,42693,32.707176,-117.236732,NaN,NaN,NaN,NaN
20050415,025450,42723,32.707178,-117.236737,NaN,NaN,NaN,NaN
20050415,025521,42754,32.707178,-117.236735,NaN,NaN,NaN,NaN
20050415,025550,42783,32.707178,-117.236742,NaN,NaN,NaN,NaN
20050415,025620,42813,32.707171,-117.236730,NaN,NaN,NaN,NaN
20050415,025652,42845,32.707176,-117.236743,NaN,NaN,NaN,NaN
20050415,025722,42875,32.707178,-117.236742,NaN,NaN,NaN,NaN
20050415,025752,42905,32.707176,-117.236737,NaN,NaN,NaN,NaN
20050415,025821,42934,32.707178,-117.236738,NaN,NaN,NaN,NaN
20050415,025851,42964,32.707178,-117.236737,NaN,NaN,NaN,NaN
20050415,025921,42994,32.707175,-117.236735,NaN,NaN,NaN,NaN
20050415,025951,43024,32.707168,-117.236737,NaN,NaN,NaN,NaN
20050415,030021,43054,32.707176,-117.236738,NaN,NaN,NaN,NaN
20050415,030052,43085,32.707176,-117.236732,NaN,NaN,NaN,NaN
20050415,030122,43115,32.707178,-117.236742,NaN,NaN,NaN,NaN
20050415,030152,43145,32.707180,-117.236740,NaN,NaN,NaN,NaN
20050415,030222,43175,32.707180,-117.236742,NaN,NaN,NaN,NaN
20050415,030252,43205,32.707176,-117.236745,NaN,NaN,NaN,NaN
20050415,030323,43236,32.707178,-117.236742,NaN,NaN,NaN,NaN
20050415,030353,43266,32.707185,-117.236745,NaN,NaN,NaN,NaN
20050415,030422,43295,32.707180,-117.236743,NaN,NaN,NaN,NaN
20050415,030452,43325,32.707178,-117.236738,NaN,NaN,NaN,NaN
20050415,030523,43356,32.707181,-117.236747,NaN,NaN,NaN,NaN
20050415,030552,43385,32.707176,-117.236745,NaN,NaN,NaN,NaN
20050415,030623,43416,32.707178,-117.236743,NaN,NaN,NaN,NaN
20050415,030652,43445,32.707180,-117.236745,NaN,NaN,NaN,NaN
20050415,030723,43476,32.707180,-117.236747,NaN,NaN,NaN,NaN
20050415,030753,43506,32.707180,-117.236743,NaN,NaN,NaN,NaN
20050415,030823,43536,32.707178,-117.236742,NaN,NaN,NaN,NaN
20050415,030853,43566,32.707178,-117.236747,NaN,NaN,NaN,NaN
20050415,030924,43597,32.707178,-117.236742,NaN,NaN,NaN,NaN
20050415,030954,43627,32.707178,-117.236743,NaN,NaN,NaN,NaN
20050415,031024,43657,32.707183,-117.236743,NaN,NaN,NaN,NaN
20050415,031053,43686,32.707181,-117.236742,NaN,NaN,NaN,NaN
20050415,031124,43717,32.707181,-117.236740,NaN,NaN,NaN,NaN
20050415,031154,43747,32.707180,-117.236742,NaN,NaN,NaN,NaN
20050415,031224,43777,32.707181,-117.236737,NaN,NaN,NaN,NaN
20050415,031254,43807,32.707183,-117.236742,NaN,NaN,NaN,NaN
20050415,031324,43837,32.707178,-117.236737,NaN,NaN,NaN,NaN
20050415,031354,43867,32.707178,-117.236737,NaN,NaN,NaN,NaN
20050415,031425,43898,32.707180,-117.236740,NaN,NaN,NaN,NaN
20050415,031455,43928,32.707178,-117.236733,NaN,NaN,NaN,NaN
20050415,031525,43958,32.707180,-117.236740,NaN,NaN,NaN,NaN
20050415,031555,43988,32.707185,-117.236738,NaN,NaN,NaN,NaN
20050415,031625,44018,32.707181,-117.236737,NaN,NaN,NaN,NaN
20050415,031655,44048,32.707183,-117.236735,NaN,NaN,NaN,NaN